Satellite: NOAA-11 Catalog number: 19531 Epoch time: 13318.34396036 Element set: 591 Inclination: 098.7017 deg RA of node: 037.7669 deg Eccentricity: 0.0011372 Arg of perigee: 187.2210 deg Mean anomaly: 172.8802 deg Mean motion: 14.15037345 rev/day Decay rate: 1.40e-06 rev/day^2 Epoch rev: 29735 Checksum: 293
Satellite: NOAA-12 Catalog number: 21263 Epoch time: 13318.54083352 Element set: 46 Inclination: 098.6848 deg RA of node: 342.6485 deg Eccentricity: 0.0014784 Arg of perigee: 140.3192 deg Mean anomaly: 022.3770 deg Mean motion: 14.25598728 rev/day Decay rate: 9.8e-07 rev/day^2 Epoch rev: 16997 Checksum: 324
Satellite: MET-3/5 Catalog number: 21655 Epoch time: 13318.13365743 Element set: 831 Inclination: 082.5536 deg RA of node: 148.3675 deg Eccentricity: 0.0014323 Arg of perigee: 114.1451 deg Mean anomaly: 246.1171 deg Mean motion: 13.17054213 rev/day Decay rate: -3.81e-06 rev/day^2 Epoch rev: 6967 Checksum: 280
Satellite: MET-2/21 Catalog number: 22782 Epoch time: 13318.54564829 Element set: 896 Inclination: 082.5484 deg RA of node: 343.6171 deg Eccentricity: 0.0023388 Arg of perigee: 145.3239 deg Mean anomaly: 008.5375 deg Mean motion: 13.83715570 rev/day Decay rate: 3.6e-07 rev/day^2 Epoch rev: 2043 Checksum: 312
Satellite: OKEAN-4 Catalog number: 23317 Epoch time: 13318.83895719 Element set: 376 Inclination: 082.5392 deg RA of node: 268.7553 deg Eccentricity: 0.0022837 Arg of perigee: 089.0940 deg Mean anomaly: 007.5026 deg Mean motion: 14.84773201 rev/day Decay rate: 2.056e-05 rev/day^2 Epoch rev: 3129 Checksum: 313
Satellite: NOAA-14 Catalog number: 23455 Epoch time: 13318.46137032 Element set: 524 Inclination: 098.7954 deg RA of node: 040.5657 deg Eccentricity: 0.0008398 Arg of perigee: 291.4563 deg Mean anomaly: 199.0487 deg Mean motion: 14.13929086 rev/day Decay rate: 9.9e-07 rev/day^2 Epoch rev: 97360 Checksum: 339
Satellite: NOAA-15 Catalog number: 25338 Epoch time: 13318.53000703 Element set: 951 Inclination: 098.7374 deg RA of node: 308.0200 deg Eccentricity: 0.0011470 Arg of perigee: 055.8214 deg Mean anomaly: 049.5590 deg Mean motion: 14.25291323 rev/day Decay rate: 2.28e-06 rev/day^2 Epoch rev: 80626 Checksum: 273
Satellite: RESURS Catalog number: 25394 Epoch time: 13317.98071677 Element set: 516 Inclination: 098.3833 deg RA of node: 286.7866 deg Eccentricity: 0.0002047 Arg of perigee: 139.4471 deg Mean anomaly: 240.0146 deg Mean motion: 14.24345660 rev/day Decay rate: 7.7e-07 rev/day^2 Epoch rev: 79768 Checksum: 327
Satellite: FENGYUN1 Catalog number: 25730 Epoch time: 13317.78097495 Element set: 9 Inclination: 098.8924 deg RA of node: 275.5875 deg Eccentricity: 0.0027878 Arg of perigee: 354.2091 deg Mean anomaly: 138.3733 deg Mean motion: 14.10895664 rev/day Decay rate: 3.068e-05 rev/day^2 Epoch rev: 74713 Checksum: 345
Satellite: OKEAN-0 Catalog number: 25860 Epoch time: 13317.99984131 Element set: 96 Inclination: 098.0127 deg RA of node: 278.6216 deg Eccentricity: 0.0001806 Arg of perigee: 081.3349 deg Mean anomaly: 349.0185 deg Mean motion: 14.74781321 rev/day Decay rate: 8.61e-06 rev/day^2 Epoch rev: 77043 Checksum: 311
Satellite: NOAA-16 Catalog number: 26536 Epoch time: 13318.47640735 Element set: 439 Inclination: 099.0229 deg RA of node: 012.5835 deg Eccentricity: 0.0011322 Arg of perigee: 075.1363 deg Mean anomaly: 039.6825 deg Mean motion: 14.12942708 rev/day Decay rate: 1.27e-06 rev/day^2 Epoch rev: 67779 Checksum: 313
Satellite: NOAA-17 Catalog number: 27453 Epoch time: 13318.53147927 Element set: 344 Inclination: 098.3109 deg RA of node: 324.6308 deg Eccentricity: 0.0012865 Arg of perigee: 086.5503 deg Mean anomaly: 081.2658 deg Mean motion: 14.24641506 rev/day Decay rate: 2.28e-06 rev/day^2 Epoch rev: 59212 Checksum: 303
Satellite: NOAA-18 Catalog number: 28654 Epoch time: 13318.53670203 Element set: 835 Inclination: 099.1215 deg RA of node: 289.0691 deg Eccentricity: 0.0014960 Arg of perigee: 144.0715 deg Mean anomaly: 315.6123 deg Mean motion: 14.11891206 rev/day Decay rate: 2.29e-06 rev/day^2 Epoch rev: 43727 Checksum: 296
Satellite: NOAA-19 Catalog number: 33591 Epoch time: 13318.52432228 Element set: 7 Inclination: 098.9207 deg RA of node: 259.5059 deg Eccentricity: 0.0014179 Arg of perigee: 009.7506 deg Mean anomaly: 118.3542 deg Mean motion: 14.11581839 rev/day Decay rate: 2.35e-06 rev/day^2 Epoch rev: 24570 Checksum: 304
/EX SB KEPS @ AMSAT $ORB13318.M Orbital Elements 13318.MISC
HR AMSAT ORBITAL ELEMENTS FOR MANNED AND MISCELLANEOUS SATELLITES FROM WA5QGD FORT WORTH,TX November 14, 2013 BID: ORB13318.M TO ALL RADIO AMATEURS BT
Satellite: HUBBLE Catalog number: 20580 Epoch time: 13317.58748575 Element set: 373 Inclination: 028.4717 deg RA of node: 013.0824 deg Eccentricity: 0.0003401 Arg of perigee: 139.4906 deg Mean anomaly: 341.8939 deg Mean motion: 15.04170264 rev/day Decay rate: 2.523e-05 rev/day^2 Epoch rev: 9221 Checksum: 280
Satellite: ISS Catalog number: 25544 Epoch time: 13318.91561578 Element set: 21 Inclination: 051.6491 deg RA of node: 081.5640 deg Eccentricity: 0.0001070 Arg of perigee: 106.8112 deg Mean anomaly: 353.2714 deg Mean motion: 15.50172001 rev/day Decay rate: 1.5946e-04 rev/day^2 Epoch rev: 85808 Checksum: 266
Satellite: CO-58 Catalog number: 28895 Epoch time: 13318.04677884 Element set: 620 Inclination: 097.8502 deg RA of node: 165.9251 deg Eccentricity: 0.0016753 Arg of perigee: 333.2491 deg Mean anomaly: 026.7845 deg Mean motion: 14.61331226 rev/day Decay rate: 1.073e-05 rev/day^2 Epoch rev: 42882 Checksum: 325
Satellite: FALCON Catalog number: 30776 Epoch time: 13318.57543072 Element set: 737 Inclination: 035.4316 deg RA of node: 358.2837 deg Eccentricity: 0.0002059 Arg of perigee: 193.9457 deg Mean anomaly: 297.2263 deg Mean motion: 15.12180536 rev/day Decay rate: 1.0099e-04 rev/day^2 Epoch rev: 36818 Checksum: 316
Satellite: MAST Catalog number: 31126 Epoch time: 13318.46021407 Element set: 900 Inclination: 097.8934 deg RA of node: 305.9127 deg Eccentricity: 0.0091615 Arg of perigee: 304.4731 deg Mean anomaly: 211.1840 deg Mean motion: 14.54781859 rev/day Decay rate: 1.158e-05 rev/day^2 Epoch rev: 34916 Checksum: 288
Satellite: CAPE1 Catalog number: 31130 Epoch time: 13318.72672186 Element set: 903 Inclination: 097.9117 deg RA of node: 302.5988 deg Eccentricity: 0.0099173 Arg of perigee: 320.5765 deg Mean anomaly: 038.8244 deg Mean motion: 14.53765118 rev/day Decay rate: 1.929e-05 rev/day^2 Epoch rev: 34864 Checksum: 326
Satellite: COMPASS Catalog number: 32787 Epoch time: 13318.72015843 Element set: 780 Inclination: 097.7348 deg RA of node: 013.2822 deg Eccentricity: 0.0014967 Arg of perigee: 163.9093 deg Mean anomaly: 196.2601 deg Mean motion: 14.86185718 rev/day Decay rate: 3.589e-05 rev/day^2 Epoch rev: 30031 Checksum: 316
Satellite: AAUSAT2 Catalog number: 32788 Epoch time: 13318.81395652 Element set: 763 Inclination: 097.7357 deg RA of node: 014.1314 deg Eccentricity: 0.0014569 Arg of perigee: 162.7562 deg Mean anomaly: 197.4152 deg Mean motion: 14.86709554 rev/day Decay rate: 4.880e-05 rev/day^2 Epoch rev: 30037 Checksum: 326
Satellite: DO-64 Catalog number: 32789 Epoch time: 13318.42402900 Element set: 799 Inclination: 097.7526 deg RA of node: 018.4790 deg Eccentricity: 0.0013863 Arg of perigee: 155.8432 deg Mean anomaly: 268.2267 deg Mean motion: 14.89877682 rev/day Decay rate: 7.758e-05 rev/day^2 Epoch rev: 30048 Checksum: 359
Satellite: CO-66 Catalog number: 32791 Epoch time: 13317.84406444 Element set: 755 Inclination: 097.7352 deg RA of node: 011.5841 deg Eccentricity: 0.0015414 Arg of perigee: 168.4804 deg Mean anomaly: 244.1645 deg Mean motion: 14.85185026 rev/day Decay rate: 3.328e-05 rev/day^2 Epoch rev: 30008 Checksum: 301
Satellite: RS-30 Catalog number: 32953 Epoch time: 13318.81345361 Element set: 381 Inclination: 082.5039 deg RA of node: 334.5268 deg Eccentricity: 0.0017449 Arg of perigee: 264.6547 deg Mean anomaly: 095.2543 deg Mean motion: 12.43039290 rev/day Decay rate: 1.0e-07 rev/day^2 Epoch rev: 24862 Checksum: 296
Satellite: METEOR-M Catalog number: 35865 Epoch time: 13318.67410498 Element set: 985 Inclination: 098.5835 deg RA of node: 007.2517 deg Eccentricity: 0.0002866 Arg of perigee: 017.5919 deg Mean anomaly: 342.5354 deg Mean motion: 14.21897467 rev/day Decay rate: 2.0e-08 rev/day^2 Epoch rev: 21585 Checksum: 328
Satellite: RS-38 Catalog number: 35869 Epoch time: 13318.89197422 Element set: 943 Inclination: 098.5780 deg RA of node: 007.3341 deg Eccentricity: 0.0004852 Arg of perigee: 008.3385 deg Mean anomaly: 351.7859 deg Mean motion: 14.22155824 rev/day Decay rate: 7.4e-07 rev/day^2 Epoch rev: 21591 Checksum: 329
Satellite: JUGNU Catalog number: 37839 Epoch time: 13318.52019366 Element set: 501 Inclination: 019.9611 deg RA of node: 115.8561 deg Eccentricity: 0.0018912 Arg of perigee: 139.2404 deg Mean anomaly: 277.5894 deg Mean motion: 14.12203526 rev/day Decay rate: 5.24e-06 rev/day^2 Epoch rev: 10817 Checksum: 287
Satellite: SRMSAT Catalog number: 37841 Epoch time: 13318.20462963 Element set: 500 Inclination: 019.9713 deg RA of node: 132.7968 deg Eccentricity: 0.0011856 Arg of perigee: 083.1383 deg Mean anomaly: 260.9364 deg Mean motion: 14.10264956 rev/day Decay rate: 4.40e-06 rev/day^2 Epoch rev: 10797 Checksum: 298
Satellite: RAX-2 Catalog number: 37853 Epoch time: 13318.31195609 Element set: 644 Inclination: 101.6996 deg RA of node: 241.5551 deg Eccentricity: 0.0229707 Arg of perigee: 316.7022 deg Mean anomaly: 198.9458 deg Mean motion: 14.85264234 rev/day Decay rate: 1.2491e-04 rev/day^2 Epoch rev: 11071 Checksum: 313
